Starlink 5508

operational
NORAD ID: 55639 Int'l Des: 2023-021 Owner: SPXS Country: US Constellation: starlink
LEOCIRCULAR

About Starlink 5508

Description loading...

Live Position

Loading 3D Globe...

Upcoming Passes

Altitude History

Altitude vs Time

uPlot chart will show altitude changes over time

Two-Line Element Set

1 55639U 23021M 25302.98639709 -.00000735 00000-0 -53855-4 0 9996
2 55639 69.9980 153.9934 0002653 269.2063 90.8792 14.98329349149213
Epoch: Oct 29, 2025 • Age: 17 hours

Current Status

Altitude 581.7 km
Velocity 7.57 km/s
Sub-Earth Point -29.75°S, 156.41°W
Launch Date Feb 17, 2023
Age 2.6 years
Type internet

Technical Details

Classification Payload
Mass 305.00 kg
Dry Mass 290.00 kg
Total Mass 305.00 kg
Length 0.20 m
Diameter 2.80 m
Span 9.00 m
Shape Box + pan
Manufacturer SPXS
Bus Type Starlink
Phase Status In Orbit
Owner/State SPXS/US

Large Constellations

Loading constellations...